Location: App?r?opet
(16.7219°N, 81.0466°E)
Time: 17:31:42
(UTC+00:00)

Daily predictions for brighter satellites

Satellite Brightness Start Highest point End
(mag) Time Altitude Azimuth Time Altitude Azimuth Time Altitude Azimuth
Meteor 1-12 Rocket 4.3 13:29:10 10° N 13:34:44 61° E 13:40:17 10° SSE
Cosmos 1943 4.1 13:34:53 10° SSE 13:39:33 27° ESE 13:44:11 10° NE
Ariane H10+ 4.0 13:37:15 10° SW 13:40:01 18° S 13:43:41 10° ESE
GPS 2-04 Rocket1 4.5 13:37:31 10° W 13:40:40 23° SW 13:43:44 10° SSE
Cosmos 1733 4.4 13:38:16 10° NNW 13:41:51 44° W 13:45:26 10° SSW
DASH 3.3 13:33:20 10° WNW 13:44:55 70° NNE 13:47:59 10° ESE
Cosmos 1943 Rocket 3.9 13:45:02 10° NNE 13:48:19 16° ENE 13:51:29 10° ESE
Cosmos 1626 3.2 13:45:31 10° SSE 13:48:31 25° E 13:51:31 10° NE
GPS 2-14 Rocket1 2.7 13:45:18 10° WSW 13:49:20 67° SSE 13:53:22 10° E
H-2A R/B 4.4 13:48:53 10° E 13:50:15 12° ENE 13:51:36 10° NE
Cosmos 1707 2.6 13:47:13 10° S 13:51:00 73° E 13:54:47 10° N
CZ-4B R/B 3.7 13:45:41 10° S 13:51:09 64° WSW 13:56:43 10° NNW
GPS 2-17 Rocket1 3.8 13:48:38 10° SW 13:52:39 33° SSE 13:56:20 12° E
Cosmos 1766 3.3 13:49:13 10° N 13:53:08 84° W 13:57:01 10° S
Meteor 1-15 Rocket 4.3 13:48:48 10° N 13:54:43 77° E 14:00:37 10° S
Cosmos 494 Rocket 4.1 13:55:06 10° NNW 14:00:17 83° WSW 14:05:30 10° S
Cosmos 1048 Rocket 4.2 13:56:51 10° NNW 14:01:58 72° WSW 14:07:09 10° S
YAOGAN 1 3.2 13:58:05 10° S 14:02:18 58° W 14:06:33 10° NNW
Cosmos 1242 Rocket 3.3 14:03:29 10° NNE 14:06:30 30° E 14:07:53 22° SE
In-Cosmos 22 4.1 14:01:39 10° S 14:07:01 89° W 14:12:19 10° N
Cosmos 405 Rocket 2.7 14:03:30 10° S 14:07:23 69° E 14:11:19 10° NNE
ATLAS V CENTAUR R/B 3.1 14:08:07 10° WSW 14:09:40 21° SSW 14:10:01 20° S
USA 267 3.2 14:05:41 10° NE 14:12:12 71° SE 14:18:42 10° SSW
Cosmos 292 Rocket 3.6 14:08:39 10° S 14:13:24 75° ESE 14:18:07 10° NNE
Cosmos 1782 Rocket 3.6 14:11:29 10° N 14:15:57 83° W 14:20:24 10° S
OBJECT-B 0.3 14:14:36 22° SSE 14:16:17 84° E 14:19:06 10° N
deb Chang Zheng 4 3.6 14:15:55 20° SSE 14:18:38 56° ENE 14:22:42 10° N
Lacrosse 4 Rocket 2.3 14:18:25 10° SW 14:22:34 52° WNW 14:26:37 10° N
Cosmos 1470 2.6 14:21:49 10° N 14:25:41 88° E 14:28:19 20° S
CZ-4 R/B 3.1 14:24:32 10° SSW 14:28:17 32° W 14:32:01 10° NW
H-2A R/B 2.1 14:24:05 10° NNE 14:28:27 60° E 14:32:15 14° S
Cosmos 2221 Rocket 3.6 14:24:50 10° S 14:29:15 83° W 14:33:41 10° N
Okean-O 2.5 14:27:53 24° SSE 14:30:29 73° ENE 14:34:53 10° N
Okean 2 Rocket 4.0 14:28:28 10° NNE 14:32:19 29° E 14:32:26 29° E
Cosmos 2369 Rocket 4.1 14:30:06 10° NE 14:32:27 13° ENE 14:32:39 13° ENE
Cosmos 1553 Rocket 4.0 14:28:26 10° S 14:34:30 60° E 14:40:43 10° NNE
OAO 2 Rocket 3.9 14:29:40 10° WNW 14:34:45 50° SW 14:37:07 29° SSE
CSL-04 Rocket 3.6 14:35:15 22° SSE 14:38:53 84° ENE 14:44:24 10° N
Delta 202 4.1 14:34:07 10° SW 14:39:19 46° SSE 14:41:38 33° ESE
X-37B 2.3 14:37:29 10° WSW 14:39:57 29° NW 14:42:26 10° NNE
GRACE-FO 1 4.4 14:37:03 10° N 14:40:45 77° E 14:41:34 52° SSE
GRACE-FO 2 4.4 14:37:28 10° N 14:41:10 78° E 14:41:59 52° SSE
SEDSat Delta rocket 4.1 14:38:40 10° W 14:42:08 26° SSW 14:42:55 25° SSW
SJ-6B 2.6 14:41:08 41° S 14:42:20 81° W 14:46:04 10° NNW
Okean O Rocket 4.3 14:41:11 10° SW 14:43:36 15° W 14:46:02 10° WNW
Cosmos 2278 Rocket 4.1 14:39:13 10° NW 14:43:44 25° WSW 14:48:16 10° SSW
Cosmos 1378 Rocket 3.5 14:42:00 20° S 14:45:05 85° W 14:49:30 10° N
COBE Rocket 3.9 14:44:19 25° S 14:47:06 73° W 14:51:45 10° NNW
Hubble Space Telescope 2.9 14:44:19 10° NW 14:47:16 19° N 14:49:07 14° NE
S3M 4.3 14:46:28 36° SE 14:48:10 44° E 14:54:01 10° NNE
Cosmos 1674 Rocket 3.8 14:47:06 18° SSW 14:50:09 67° W 14:54:27 10° N
SL-08 ROCKET BODY 4.3 14:44:26 10° N 14:50:23 66° E 14:52:45 37° SSE
Landsat 7 3.9 14:51:04 51° E 14:51:34 53° ENE 14:56:08 10° N
Spot 2 3.9 14:51:40 59° SSE 14:52:26 80° ENE 14:56:55 10° N
OAO 3 Copernicus 4.3 14:47:29 10° NW 14:52:33 72° NNE 14:53:38 53° E
Iridium 4 Rocket 3.7 14:47:12 10° N 14:53:06 81° E 14:55:49 33° S
CZ-2C R/B 1.7 14:49:39 10° NW 14:53:31 46° NNE 14:53:36 46° NE
Intercosmos 25 3.2 14:50:19 10° N 14:53:20 65° NE 14:53:20 65° NE
Longmarch 3A Rocket 3.9 14:52:51 10° NNW 14:54:29 15° NNE 14:55:18 14° NE
Atlas Centaur 2 4.1 14:54:06 10° NW 14:56:27 14° N 14:58:37 10° NNE
IRS-1C Rocket 4.5 14:53:27 24° S 14:56:34 60° WSW 15:01:45 10° NNW
Meteor 2-17 Rocket 4.4 14:50:43 10° N 14:56:47 82° W 15:00:08 28° S
MetOp-A 3.2 14:56:56 81° S 14:57:07 89° W 15:01:12 10° NNW
Cosmos 1244 Rocket 4.4 14:54:23 10° N 15:00:27 65° E 15:01:57 49° SE
Cosmos 1269 Rocket 3.9 14:56:24 10° N 15:01:40 72° ENE 15:02:22 62° SE
Yuri Rocket 4.4 15:03:22 10° W 15:07:20 37° NNW 15:10:10 20° NE
Cosmos 1437 Rocket 3.4 15:03:35 10° N 15:06:34 48° NNE 15:06:34 48° NNE
Cosmos 1758 3.7 15:03:52 10° NNW 15:07:51 58° W 15:08:03 57° WSW
Cosmos 1238 Rocket 3.9 15:02:23 10° N 15:08:12 62° E 15:08:55 58° ESE
USA 186 4.5 15:08:37 12° W 15:08:37 12° W 15:09:39 10° WNW
Cosmos 1607 3.8 15:07:31 42° S 15:09:35 66° ESE 15:15:45 10° NNE
Milstar 3 4.2 15:00:38 10° SW 15:09:58 51° SE 15:27:50 10° ENE
Cosmos 2297 3.5 15:04:39 10° NNW 15:10:20 80° ENE 15:11:00 68° SE
SPOT 1/Viking Rocket 4.2 15:12:10 39° NE 15:12:10 39° NE 15:16:07 10° N
SL-14 R/B 4.3 15:16:20 40° W 15:16:23 40° W 15:20:01 10° NNW
CZ-3A R/B 4.2 15:08:20 10° SW 15:16:28 28° SSW 15:16:28 28° SSW
Gblst 52 Del rocket 4.5 15:16:52 10° NNW 15:23:08 58° NE 15:23:12 58° NE
H-2A R/B 4.2 15:25:09 24° WSW 15:25:22 24° W 15:28:33 10° NW
IRS-1A Rocket 4.3 15:25:46 71° ENE 15:25:46 71° ENE 15:31:28 10° N
CZ-4B R/B 4.2 15:23:24 10° NNW 15:23:59 14° NNW 15:23:59 14° NNW
GPS 2-14 Rocket1 4.5 15:26:03 10° W 15:28:18 30° WNW 15:28:18 30° WNW
Cosmos 1943 Rocket 3.1 15:26:50 10° NW 15:32:01 40° WSW 15:33:03 36° SW
GEOS 3 Rocket 3.9 15:32:19 57° WSW 15:32:19 57° WSW 15:37:07 10° NW
Cosmos 1745 Rocket 4.4 15:28:19 10° N 15:33:06 49° NE 15:33:06 49° NE
Ariane Rocket 3.9 15:41:49 42° N 15:41:49 42° N 15:45:11 10° N
ATLAS 3B CENTAUR R/B 3.9 15:32:46 10° WNW 15:45:52 54° N 15:49:16 39° ENE
Cosmos 2315 Rocket 4.3 15:50:49 63° N 15:50:49 63° N 15:56:01 10° N
Resurs 01 Rocket 3.5 15:54:19 28° NW 15:54:19 28° NW 15:56:43 10° NNW
Centaur D AC-28 4.1 15:27:25 10° WNW 16:13:10 49° SW 16:14:08 48° SSW
Cosmos 2369 Rocket 3.6 16:11:06 10° NNW 16:14:27 34° NW 16:14:27 34° NW
SL-16 R/B 3.9 20:53:08 33° N 20:53:08 33° N 20:56:22 10° N
Cosmos 2360 Rocket 4.0 20:49:07 10° N 20:52:00 27° NNE 20:52:00 27° NNE
Cosmos 2297 Rocket 3.7 21:04:40 30° ENE 21:04:40 30° ENE 21:08:21 10° NE
NOSS 3-2 (C) 4.3 21:14:31 37° NE 21:14:31 37° NE 21:17:51 10° NNE
CENTAUR R/B 3.6 21:15:27 31° N 21:15:27 31° N 21:18:47 10° NNE
Delta 2 Rocket 4.5 21:23:19 80° WNW 21:23:46 83° NNW 21:33:12 10° ENE
USA 238 DEB 3.6 21:31:25 68° N 21:31:25 68° N 21:37:04 10° NNE
USA 238 3.6 21:31:32 68° N 21:31:32 68° N 21:37:12 10° NNE
Cosmos 2219 Rocket 3.4 21:32:17 10° N 21:37:33 39° ENE 21:42:47 10° SE
Cosmos 2333 Rocket 2.3 21:39:44 10° NNW 21:45:28 72° ENE 21:46:21 61° SE
ALOS 2.6 21:51:06 10° N 21:54:58 62° N 21:54:58 62° N
SWIFT 3.3 21:59:03 44° NNE 21:59:03 44° NNE 22:02:23 10° ENE
Cosmos 990 Rocket 4.3 21:56:17 10° NNW 22:00:12 52° NW 22:00:12 52° NW
MOS 1-B Rocket 3.9 22:01:05 49° S 22:02:52 80° WSW 22:09:42 10° NNW
CZ-2D R/B 4.2 22:01:07 10° NNE 22:05:09 48° E 22:05:39 45° SE
Ariane H10+ 4.5 22:02:57 31° SSW 22:05:45 34° S 22:26:30 10° ESE
Helios 1B rocket 4.1 22:02:28 10° N 22:04:26 25° NNW 22:04:26 25° NNW
ARIANE 5 R/B 2.4 22:01:41 10° NNE 22:06:43 81° ESE 22:07:31 63° S
Cosmos 1500 Rocket 3.9 22:06:26 55° ESE 22:06:55 59° E 22:11:14 10° NNE
Cosmos 1666 3.7 22:08:58 41° ESE 22:09:18 42° E 22:12:52 10° NNE
FUSE 3.7 22:09:44 74° SW 22:10:13 85° SSE 22:15:37 10° ENE
METEOR-M 4.2 22:06:16 10° NNE 22:11:35 76° E 22:13:20 44° S
Meteor 1-27 Rocket 4.2 22:06:38 10° N 22:12:07 59° E 22:17:32 10° SSE
IRS-1C 4.0 22:08:30 10° N 22:13:47 67° WNW 22:14:30 60° WSW
Cosmos 1898 Rocket 3.3 22:09:40 10° NNW 22:14:50 87° WSW 22:17:15 32° S
Cosmos 2227 Rocket 2.1 22:15:01 57° WSW 22:15:57 68° WNW 22:21:36 10° N
CZ-2C R/B 2.5 22:11:51 10° N 22:15:53 50° WNW 22:15:53 50° WNW
Cosmos 1500 3.9 22:19:59 42° NNW 22:19:59 42° NNW 22:22:43 10° N
Cosmos 2208 Rocket 4.0 22:18:06 56° SW 22:19:00 66° WNW 22:24:25 10° N
Cosmos 2333 4.4 22:14:03 10° NNW 22:19:22 47° W 22:19:22 47° W
Cosmos 1570 Rocket 4.3 22:20:19 45° WNW 22:20:25 45° WNW 22:25:23 10° N
Meteor 1-20 Rocket 4.3 22:21:02 49° WSW 22:21:55 55° W 22:27:22 10° N
Cosmos 1725 Rocket 4.3 22:20:20 10° NNW 22:26:03 41° W 22:26:53 39° WSW
Envisat 4.3 22:24:22 10° NNE 22:29:03 38° E 22:33:43 10° SSE
GPS 2-17 Rocket1 4.4 22:30:55 26° S 22:30:55 26° S 22:33:56 10° SE
Cosmos 2061 Rocket 4.4 22:24:03 10° NNW 22:30:01 42° W 22:31:37 36° SW
Cosmos 2219 3.4 22:31:37 40° WSW 22:33:14 52° WNW 22:38:44 10° N
COSMOS 2428 2.6 22:27:52 10° NNW 22:33:35 86° WSW 22:39:18 10° SSE
Intelsat 5-1 Rocket 2.3 22:34:14 30° N 22:34:14 30° N 22:36:09 10° NE
Cosmos 2346 Rocket 4.3 22:31:17 20° S 22:35:40 87° W 22:41:44 10° N
Cosmos 2233 Rocket 4.0 22:31:33 10° NNW 22:37:32 55° W 22:41:41 20° SSW
Cosmos 1937 Rocket 3.3 22:32:23 10° NNW 22:37:35 73° WSW 22:42:42 10° S
CZ-3C R/B 3.5 22:35:16 23° WNW 22:38:34 73° N 23:16:32 10° E
Cosmos 2263 Rocket 3.6 22:39:39 10° SSE 22:44:44 35° ESE 22:49:46 10° NE
X-37B 3.7 22:43:32 10° N 22:45:15 15° NE 22:46:57 10° ENE
Meteor 1-29 3.9 22:42:35 10° NNW 22:45:14 30° WNW 22:45:14 30° WNW
Cosmos 2297 Rocket 3.7 22:46:29 18° WNW 22:47:14 19° WNW 22:51:04 10° NNW
CZ-2C R/B 3.4 22:44:12 10° NNE 22:48:04 56° E 22:51:46 11° S
USA 290 3.8 22:45:42 10° NW 22:47:14 22° NW 22:47:14 22° NW
CZ-4B R/B 4.0 22:47:42 10° NNE 22:52:43 59° ESE 22:57:35 10° S
Cosmos 1315 Rocket 2.8 22:49:34 16° S 22:52:48 82° E 22:56:50 10° N
Cosmos 2237 Rocket 3.5 22:49:54 10° N 22:55:14 43° ENE 23:00:31 10° SE
Cosmos 2322 4.3 22:50:31 10° NW 22:55:32 33° WSW 23:00:31 10° SSW
Cosmos 1805 Rocket 3.8 22:54:37 24° SSW 22:56:56 48° W 23:01:12 10° N
NOSS 0 Rocket 4.0 22:52:11 10° NNW 22:58:20 81° ENE 23:04:28 10° SSE
ARIANE 5 R/B 4.4 22:55:59 10° S 22:58:46 15° SSE 23:04:27 10° ESE
Cosmos 1515 Rocket 3.9 22:55:00 10° NNW 22:59:08 43° W 23:02:27 15° SSW
IRIDIUM 104 4.5 22:55:24 16° SSW 22:59:26 52° W 23:04:29 10° NNW
Meteor 1-5 Rocket 4.0 22:55:47 10° S 23:01:17 78° W 23:06:39 10° N
Cosmos 1666 Rocket 4.2 22:57:02 10° S 23:01:19 58° E 23:05:39 10° NNE
Cosmos 44 Rocket 3.8 23:02:46 21° SW 23:05:38 43° WNW 23:10:15 10° N
Aurora 2 Rocket 2.7 23:05:06 10° WNW 23:08:04 44° NNE 23:11:14 10° E
Cosmos 1513 Rocket 4.4 23:05:51 10° N 23:11:55 81° W 23:18:02 10° S
Meteor 2-13 Rocket 4.5 23:06:17 10° SSW 23:12:18 63° W 23:18:21 10° N
CZ-4C R/B 3.5 23:15:01 10° SSE 23:19:13 87° E 23:23:34 10° N
Sich 1 3.9 23:17:03 14° SW 23:20:10 29° W 23:23:57 10° NNW
Cosmos 2219 Rocket 3.6 23:17:45 10° WNW 23:21:05 16° WSW 23:24:24 10° SW
Cosmos 1484 Rocket 4.4 23:19:00 10° NNW 23:21:41 18° WNW 23:23:41 13° WSW
COSMOS 2455 4.0 23:18:12 10° N 23:23:57 48° ENE 23:29:41 10° SE
SJ-12 3.9 23:22:31 10° NNE 23:26:38 88° E 23:30:45 10° S
CZ-2C R/B 2.9 23:22:04 10° N 23:26:59 86° W 23:31:43 10° SSW
Landsat 4 3.9 23:24:06 10° N 23:27:39 48° WNW 23:31:14 10° SSW
Cosmos 389 Rocket 2.6 23:25:07 10° S 23:28:34 77° E 23:32:03 10° N
Cosmos 2098 Rocket 4.3 23:27:58 12° WSW 23:29:26 14° W 23:31:17 10° NW
YAOGAN 6 3.9 23:27:18 10° NNW 23:30:08 22° WNW 23:32:56 10° SW
ATLAS CENTAUR R/B 2.3 23:25:56 10° S 23:30:08 53° ESE 23:34:40 10° NE
Timation 2 Rocket 4.1 23:24:21 10° SSW 23:30:15 56° WNW 23:36:23 10° N
ATLAS 3B R/B 3.7 23:24:26 10° S 23:30:22 43° ESE 23:36:27 10° NE
Cosmos 773 Rocket 4.0 23:25:35 10° SSW 23:30:50 78° WNW 23:36:05 10° N
PSLV R/B 4.2 23:27:45 10° N 23:31:34 35° WNW 23:35:22 10° SW
Cosmos 2034 Rocket 4.1 23:26:13 10° N 23:32:25 84° E 23:38:34 10° S
Meteor 1-11 Rocket 4.3 23:28:06 10° S 23:33:58 69° E 23:39:54 10° NNE
Cosmos 371 Rocket 4.0 23:32:22 10° N 23:37:05 58° ENE 23:41:49 10° SSE
Milstar 3 Cent rocket 3.3 23:34:14 10° SW 23:39:12 46° SE 23:47:35 10° ENE
GPS 2-15 Rocket1 4.3 23:35:16 10° SW 23:39:30 32° SSE 23:43:39 10° E
Cosmos 1707 Rocket 4.1 23:35:20 10° N 23:39:41 63° E 23:44:03 10° SSE
SWIFT 2.9 23:36:15 10° WNW 23:40:20 56° N 23:44:26 10° E
MINOTAUR 4 R/B 4.4 23:39:05 10° S 23:42:25 42° W 23:45:46 10° NNW
NOAA 11 4.2 23:38:49 10° N 23:44:10 66° WNW 23:49:32 10° SSW
Cosmos 1536 2.9 23:41:58 10° S 23:45:57 85° E 23:49:58 10° N
